User: anonymous   Login
Location: Bishop�s Knoyle
(51.0728°N, 2.1714°W)
Time: 11:58:56
(UTC+00:00)
Language:

SPOT 1/Viking Rocket - Orbit

View from above orbital plane
View from above orbital plane
View from above satellite
View from above satellite

Ground track
Ground track

The orbit data is extracted from the following two-line orbital elements,

1 16615U 86019C   20329.92518940 +.00000046 +00000-0 +33067-4 0  9990
2 16615 098.4594 031.4065 0010707 298.7480 234.9212 14.31816485819240
Epoch (UTC): 24 November 2020 22:12:16
Eccentricity: 0.0010707
inclination: 98.4594°
perigee height: 778 km
apogee height: 793 km
right ascension of ascending node: 31.4065°
argument of perigee: 298.7480°
revolutions per day: 14.31816485
mean anomaly at epoch: 234.9212°
orbit number at epoch: 81924

The dashed part of the orbit path shows where the satellite is in the earth's shadow,  

DLR